Dansville, NY

7:07 AM EST on February 09, 2016 (GMT -0500)
Dansville Municipal

Weather History for KDSV - February, 2013

Change the Weather History Date:

Tuesday, February 5, 2013

  Actual Average Record
Temperature  
Mean Temperature 22 °F -  
Max Temperature 28 °F 31 °F 62 °F (1991)
Min Temperature 17 °F 13 °F -8 °F (1970)
Degree Days  
Heating Degree Days 42    
Moisture  
Dew Point 17 °F    
Average Humidity 79    
Maximum Humidity 96    
Minimum Humidity 61    
Precipitation  
Precipitation 0.00 in - - ()
Sea Level Pressure  
Sea Level Pressure 29.93 in    
Wind  
Wind Speed 1 mph (SE)    
Max Wind Speed 8 mph    
Max Gust Speed -    
Visibility 8 miles    
Events Snow    
Averages and records for this station are not official NWS values.
T = Trace of Precipitation, MM = Missing Value Source: NWS Daily Summary

Daily Weather History Graph

Daily Weather History Graph

Search for Another Location

Airport or City:

Trip Planner

Search our weather history database for the weather conditions in past years. The results will help you decide how hot, cold, wet, or windy it might be!

Date:

Astronomy

Feb. 05, 2013 Rise Set
Actual Time 7:20 AM EST 5:30 PM EST
Civil Twilight 6:50 AM EST 5:59 PM EST
Nautical Twilight 6:17 AM EST 6:33 PM EST
Astronomical Twilight 5:44 AM EST 7:06 PM EST
Moon 3:02 AM EST (2/5) 12:43 PM EST (2/5)
Length of Visible Light 11h 09m
Length of Day
10h 09m
Waning Crescent, 27% of the Moon is Illuminated
Feb 5
Waning Crescent
Feb 10
New
Feb 17
First Quarter
Feb 25
Full
Mar 4
Last Quarter

Hourly Weather History & Observations

Time (EST) Temp. Windchill Dew Point Humidity Pressure Visibility Wind Dir Wind Speed Gust Speed Precip Events Conditions
12:54 AM 19.0 °F - 16.0 °F 88% 29.96 in 6.0 mi Calm Calm - 0.00 in Snow Light Snow
1:54 AM 19.0 °F - 16.0 °F 88% 29.95 in 6.0 mi Calm Calm - 0.00 in Snow Light Snow
2:40 AM 19.4 °F 14.3 °F 15.8 °F 86% 29.89 in 6.0 mi NW 3.5 mph - N/A   Overcast
2:54 AM 18.0 °F - 17.1 °F 96% 29.95 in 6.0 mi Calm Calm - 0.00 in   Overcast
3:24 AM 19.4 °F - 15.8 °F 86% 29.89 in 8.0 mi Calm Calm - 0.00 in   Overcast
3:54 AM 18.0 °F - 16.0 °F 92% 29.96 in 10.0 mi Calm Calm - 0.00 in   Overcast
4:54 AM 18.0 °F - 16.0 °F 92% 29.96 in 7.0 mi Calm Calm - N/A   Overcast
5:54 AM 18.0 °F - 15.1 °F 88% 29.97 in 7.0 mi Calm Calm - N/A   Overcast
6:54 AM 18.0 °F - 16.0 °F 92% 29.97 in 7.0 mi Calm Calm - N/A   Overcast
7:54 AM 19.0 °F - 17.1 °F 92% 29.98 in 4.0 mi Calm Calm - N/A   Overcast
8:45 AM 19.4 °F - 17.6 °F 93% 29.92 in 6.0 mi Calm Calm - 0.00 in   Overcast
8:54 AM 17.1 °F - 15.1 °F 92% 29.98 in 5.0 mi Calm Calm - 0.00 in   Overcast
9:54 AM 21.0 °F - 16.0 °F 81% 29.97 in 10.0 mi Calm Calm - N/A   Overcast
10:54 AM 21.9 °F 15.7 °F 14.0 °F 72% 29.97 in 10.0 mi SE 4.6 mph - N/A   Overcast
11:54 AM 24.1 °F 18.2 °F 15.1 °F 69% 29.95 in 10.0 mi South 4.6 mph - N/A   Mostly Cloudy
12:39 PM 24.8 °F 16.1 °F 14.0 °F 64% 29.86 in 10.0 mi SE 8.1 mph - N/A   Scattered Clouds
12:54 PM 25.0 °F 18.1 °F 15.1 °F 66% 29.91 in 10.0 mi SE 5.8 mph - N/A   Partly Cloudy
1:54 PM 27.0 °F 19.5 °F 15.1 °F 61% 29.90 in 10.0 mi SSE 6.9 mph - N/A   Mostly Cloudy
2:54 PM 28.0 °F 21.7 °F 16.0 °F 61% 29.87 in 10.0 mi SSE 5.8 mph - N/A   Overcast
3:54 PM 28.0 °F 24.2 °F 17.1 °F 63% 29.86 in 10.0 mi ESE 3.5 mph - N/A   Overcast
4:54 PM 28.9 °F 23.9 °F 17.1 °F 61% 29.87 in 10.0 mi SSE 4.6 mph - N/A   Overcast
5:54 PM 28.9 °F - 18.0 °F 64% 29.87 in 10.0 mi Calm Calm - N/A   Overcast
6:54 PM 21.9 °F - 16.0 °F 78% 29.89 in 10.0 mi Calm Calm - N/A   Mostly Cloudy
7:54 PM 25.0 °F - 18.0 °F 75% 29.90 in 10.0 mi Calm Calm - N/A   Overcast
8:54 PM 25.0 °F - 19.0 °F 78% 29.92 in 10.0 mi Calm Calm - N/A   Overcast
9:54 PM 24.1 °F 19.7 °F 19.0 °F 81% 29.93 in 9.0 mi SE 3.5 mph - N/A   Overcast
10:54 PM 25.0 °F - 19.9 °F 81% 29.92 in 10.0 mi Calm Calm - N/A   Overcast
11:54 PM 24.1 °F - 19.0 °F 81% 29.93 in 10.0 mi Calm Calm - N/A   Overcast